DL9BGG-13 Weather Reports


time (UTC)temp
C
wind
direction
speed
KPH
gust
KPH
rain 1hr
cm
rain 24hr
cm
rain mn
cm
humidity
%
barometer
mb
20260503025754 11 22 0.0 0.0 0.00 0.00 0.00 92 1057.3
20260503025647 11 22 0.0 0.0 0.00 0.00 0.00 92 1057.2
20260503025542 11 67 0.0 0.0 0.00 0.00 0.00 92 1057.2
20260503025419 11 90 0.0 0.0 0.00 0.00 0.00 92 1057.2
20260503025300 11 90 0.0 0.0 0.00 0.00 0.00 92 1057.2
20260503025153 11 90 0.0 0.0 0.00 0.00 0.00 92 1057.1
20260503025041 11 90 0.0 0.0 0.00 0.00 0.00 92 1057.1
20260503024928 11 90 0.0 0.0 0.00 0.00 0.00 92 1057.1
20260503024800 11 90 0.0 0.0 0.00 0.00 0.00 92 1057.0
20260503024647 11 90 0.0 0.0 0.00 0.00 0.00 92 1057.0
20260503024540 11 90 0.0 0.0 0.00 0.00 0.00 92 1057.0
20260503024419 11 90 0.0 0.0 0.00 0.00 0.00 92 1056.8
20260503024314 11 90 0.0 0.0 0.00 0.00 0.00 92 1056.8
20260503024208 11 90 0.0 0.0 0.00 0.00 0.00 92 1056.8
20260503024104 11 135 0.0 0.0 0.00 0.00 0.00 92 1056.7
20260503023959 11 135 0.0 0.0 0.00 0.00 0.00 92 1056.7
20260503023853 11 135 0.0 0.0 0.00 0.00 0.00 92 1056.8
20260503023733 11 135 0.0 0.0 0.00 0.00 0.00 92 1056.8
20260503023627 11 135 0.0 0.0 0.00 0.00 0.00 92 1056.8
20260503023522 11 135 0.0 0.0 0.00 0.00 0.00 92 1056.8
20260503023408 11 135 0.0 0.0 0.00 0.00 0.00 92 1056.8
20260503023256 11 135 0.0 0.0 0.00 0.00 0.00 92 1056.8
20260503023143 11 135 0.0 0.0 0.00 0.00 0.00 92 1056.8
20260503023032 11 135 0.0 0.0 0.00 0.00 0.00 92 1056.9
20260503022917 11 135 0.0 0.0 0.00 0.00 0.00 92 1056.9
20260503022811 11 135 0.0 0.0 0.00 0.00 0.00 92 1056.9
20260503022650 11 0 0.0 0.0 0.00 0.00 0.00 92 1057.1
20260503022530 11 135 0.0 0.0 0.00 0.00 0.00 92 1057.0
20260503022423 11 135 0.0 0.0 0.00 0.00 0.00 92 1057.2
20260503022311 11 135 0.0 0.0 0.00 0.00 0.00 92 1057.2
20260503022206 11 135 0.0 0.0 0.00 0.00 0.00 92 1057.2
20260503022044 11 135 0.0 0.0 0.00 0.00 0.00 92 1057.2
20260503021933 11 135 0.0 0.0 0.00 0.00 0.00 92 1057.0
20260503021829 11 135 0.0 0.0 0.00 0.00 0.00 92 1057.1
20260503021723 11 135 0.0 0.0 0.00 0.00 0.00 92 1057.3
20260503021618 11 135 0.0 0.0 0.00 0.00 0.00 92 1057.2
20260503021513 11 135 0.0 0.0 0.00 0.00 0.00 92 1057.2
20260503021400 11 135 0.0 0.0 0.00 0.00 0.00 92 1057.2
20260503021245 11 135 0.0 0.0 0.00 0.00 0.00 92 1057.2
20260503021127 11 135 0.0 0.0 0.00 0.00 0.00 92 1057.2
20260503021018 11 135 0.0 0.0 0.00 0.00 0.00 92 1057.2
20260503020856 11 135 0.0 0.0 0.00 0.00 0.00 92 1057.4
20260503020728 11 135 0.0 0.0 0.00 0.00 0.00 92 1057.3
20260503020601 11 135 0.0 0.0 0.00 0.00 0.00 92 1057.4
20260503020454 11 135 0.0 0.0 0.00 0.00 0.00 92 1057.4
20260503020341 11 135 0.0 0.0 0.00 0.00 0.00 92 1057.3
20260503020238 11 135 0.0 0.0 0.00 0.00 0.00 92 1057.3
20260503020130 11 135 0.0 0.0 0.00 0.00 0.00 92 1057.3
20260503020001 11 135 0.0 0.0 0.00 0.00 0.00 92 1057.4
20260503015840 11 135 0.0 0.0 0.00 0.00 0.00 92 1057.3
20260503015719 11 135 0.0 0.0 0.00 0.00 0.00 92 1057.3
20260503015606 11 135 0.0 0.0 0.00 0.00 0.00 92 1057.3
20260503015452 11 135 0.0 0.0 0.00 0.00 0.00 92 1057.3
20260503015332 11 135 0.0 0.0 0.00 0.00 0.00 92 1057.4
20260503015202 11 135 0.0 0.0 0.00 0.00 0.00 92 1057.4
20260503015050 11 135 0.0 0.0 0.00 0.00 0.00 92 1057.4
20260503014946 11 135 0.0 0.0 0.00 0.00 0.00 92 1057.4
20260503014839 11 135 0.0 0.0 0.00 0.00 0.00 92 1057.5
20260503014726 11 135 0.0 0.0 0.00 0.00 0.00 92 1057.4
20260503014623 11 135 0.0 0.0 0.00 0.00 0.00 92 1057.5
20260503014515 11 135 0.0 0.0 0.00 0.00 0.00 92 1057.5
20260503014355 11 135 0.0 0.0 0.00 0.00 0.00 92 1057.6
20260503014242 11 135 0.0 0.0 0.00 0.00 0.00 92 1057.7
20260503014128 11 135 0.0 0.0 0.00 0.00 0.00 92 1057.7
20260503014000 11 135 0.0 0.0 0.00 0.00 0.00 92 1057.7
20260503013856 11 135 0.0 0.0 0.00 0.00 0.00 92 1057.6
20260503013751 11 135 0.0 0.0 0.00 0.00 0.00 92 1057.6
20260503013644 11 135 0.0 0.0 0.00 0.00 0.00 92 1057.7
20260503013517 11 135 0.0 0.0 0.00 0.00 0.00 92 1057.7
20260503013409 11 135 0.0 0.0 0.00 0.00 0.00 92 1057.8
20260503013248 11 135 0.0 0.0 0.00 0.00 0.00 92 1057.7
20260503013126 11 135 0.0 0.0 0.00 0.00 0.00 92 1057.7
20260503013005 11 135 0.0 0.0 0.00 0.00 0.00 92 1057.8
20260503012847 11 135 0.0 0.0 0.00 0.00 0.00 92 1057.7
20260503012742 11 135 0.0 0.0 0.00 0.00 0.00 92 1057.8
20260503012635 11 157 0.0 0.0 0.00 0.00 0.00 92 1057.7
20260503012521 11 157 0.0 0.0 0.00 0.00 0.00 92 1057.7
20260503012352 11 157 6.4 0.0 0.00 0.00 0.00 92 1057.8
20260503012230 11 90 0.0 0.0 0.00 0.00 0.00 92 1057.7
20260503012101 11 45 0.0 0.0 0.00 0.00 0.00 92 1057.6
20260503011948 11 45 0.0 0.0 0.00 0.00 0.00 92 1057.6
20260503011827 11 90 0.0 0.0 0.00 0.00 0.00 92 1057.7
20260503011658 11 90 0.0 0.0 0.00 0.00 0.00 92 1057.7
20260503011546 11 90 0.0 0.0 0.00 0.00 0.00 92 1057.8
20260503011441 11 90 0.0 0.0 0.00 0.00 0.00 92 1057.7
20260503011325 11 90 0.0 0.0 0.00 0.00 0.00 92 1057.7
20260503011214 11 67 0.0 0.0 0.00 0.00 0.00 92 1057.7
20260503011109 11 67 0.0 0.0 0.00 0.00 0.00 92 1057.6
20260503011003 10 67 4.8 0.0 0.00 0.00 0.00 92 1057.6
20260503010834 10 90 4.8 0.0 0.00 0.00 0.00 92 1057.5
20260503010721 10 45 0.0 0.0 0.00 0.00 0.00 92 1057.6
20260503010609 10 90 0.0 0.0 0.00 0.00 0.00 92 1057.5
20260503010438 10 90 0.0 0.0 0.00 0.00 0.00 92 1057.5
20260503010318 10 90 0.0 0.0 0.00 0.00 0.00 92 1057.5
20260503005931 10 67 0.0 0.0 0.00 0.00 0.00 92 1057.4
20260503005825 10 45 0.0 0.0 0.00 0.00 0.00 92 1057.5
20260503005712 10 45 0.0 0.0 0.00 0.00 0.00 92 1057.4
20260503005558 10 45 0.0 0.0 0.00 0.00 0.00 92 1057.5
20260503005429 10 45 0.0 0.0 0.00 0.00 0.00 92 1057.6
20260503005315 10 45 0.0 0.0 0.00 0.00 0.00 92 1057.6
20260503005156 10 45 0.0 0.0 0.00 0.00 0.00 92 1057.6
20260503005051 10 45 0.0 0.0 0.00 0.00 0.00 92 1057.7
20260503004946 10 45 0.0 0.0 0.00 0.00 0.00 92 1057.7
20260503004840 10 45 0.0 0.0 0.00 0.00 0.00 92 1057.7
20260503004726 10 45 0.0 0.0 0.00 0.00 0.00 92 1057.8
20260503004559 10 45 0.0 0.0 0.00 0.00 0.00 92 1057.8
20260503004452 10 45 0.0 0.0 0.00 0.00 0.00 92 1057.8
20260503004330 10 45 0.0 0.0 0.00 0.00 0.00 92 1057.8
20260503004201 10 45 0.0 0.0 0.00 0.00 0.00 92 1057.8
20260503004049 10 45 0.0 0.0 0.00 0.00 0.00 92 1057.8
20260503003946 10 45 0.0 0.0 0.00 0.00 0.00 92 1057.8
20260503003827 10 90 0.0 0.0 0.00 0.00 0.00 92 1057.9
20260503003557 10 45 0.0 0.0 0.00 0.00 0.00 92 1057.9
20260503003330 10 45 0.0 0.0 0.00 0.00 0.00 92 1057.8
20260503003217 10 45 0.0 0.0 0.00 0.00 0.00 92 1057.9
20260503003105 10 45 0.0 0.0 0.00 0.00 0.00 92 1057.9
20260503002952 11 45 0.0 0.0 0.00 0.00 0.00 92 1058.0
20260503002844 11 45 0.0 0.0 0.00 0.00 0.00 92 1057.9
20260503002723 11 45 0.0 0.0 0.00 0.00 0.00 92 1058.0
20260503002554 11 45 0.0 0.0 0.00 0.00 0.00 92 1058.1
20260503002449 11 45 0.0 0.0 0.00 0.00 0.00 92 1058.1
20260503002338 11 45 0.0 0.0 0.00 0.00 0.00 92 1058.2
20260503002229 11 45 0.0 0.0 0.00 0.00 0.00 92 1058.2
20260503002118 11 45 0.0 0.0 0.00 0.00 0.00 92 1058.1
20260503002006 11 45 0.0 0.0 0.00 0.00 0.00 92 1058.2
20260503001901 11 45 0.0 0.0 0.00 0.00 0.00 92 1058.2
20260503001739 11 45 0.0 0.0 0.00 0.00 0.00 92 1058.2
20260503001633 11 45 0.0 0.0 0.00 0.00 0.00 92 1058.2
20260503001519 11 45 0.0 0.0 0.00 0.00 0.00 92 1058.2
20260503001358 11 45 0.0 0.0 0.00 0.00 0.00 92 1058.2
20260503001245 11 45 0.0 0.0 0.00 0.00 0.00 92 1058.2
20260503001132 11 45 0.0 0.0 0.00 0.00 0.00 92 1058.2
20260503001011 11 45 0.0 0.0 0.00 0.00 0.00 92 1058.2
20260503000906 11 45 0.0 0.0 0.00 0.00 0.00 92 1058.2
20260503000752 11 45 0.0 0.0 0.00 0.00 0.00 92 1058.3
20260503000631 11 67 0.0 0.0 0.00 0.00 0.00 92 1058.4
20260503000519 11 112 0.0 0.0 0.00 0.00 0.00 92 1058.4
20260503000416 11 135 0.0 0.0 0.00 0.00 0.00 92 1058.4
20260503000308 11 135 0.0 0.0 0.00 0.00 0.00 92 1058.5
20260503000155 11 135 0.0 0.0 0.00 0.00 0.00 92 1058.6
20260503000033 11 135 0.0 0.0 0.00 0.00 0.00 92 1058.6
20260502235914 11 135 0.0 0.0 0.00 0.00 0.00 92 1058.6
20260502235808 11 135 0.0 0.0 0.00 0.00 0.00 92 1058.7
20260502235638 11 135 0.0 0.0 0.00 0.00 0.00 92 1058.9
20260502235524 11 135 0.0 0.0 0.00 0.00 0.00 92 1058.9
20260502235410 11 135 0.0 0.0 0.00 0.00 0.00 92 1058.9
20260502235250 11 135 0.0 0.0 0.00 0.00 0.00 92 1058.9
20260502235147 11 135 0.0 0.0 0.00 0.00 0.00 92 1059.2
20260502235040 11 157 0.0 0.0 0.00 0.00 0.00 92 1059.3
20260502234926 11 157 0.0 0.0 0.00 0.00 0.00 92 1059.4
20260502234815 11 157 0.0 0.0 0.00 0.00 0.00 92 1059.4
20260502234708 11 157 0.0 0.0 0.00 0.00 0.00 92 1059.4
20260502234540 11 157 0.0 0.0 0.00 0.00 0.00 92 1059.4
20260502234433 11 157 0.0 0.0 0.00 0.00 0.00 92 1059.3
20260502234320 11 157 0.0 0.0 0.00 0.00 0.00 92 1059.4
20260502234208 11 157 0.0 0.0 0.00 0.00 0.00 92 1059.4
20260502234100 11 135 0.0 0.0 0.00 0.00 0.00 92 1059.4
20260502233948 11 135 0.0 0.0 0.00 0.00 0.00 92 1059.5
20260502233834 11 135 0.0 0.0 0.00 0.00 0.00 92 1059.3
20260502233721 11 135 0.0 0.0 0.00 0.00 0.00 92 1059.4
20260502233608 11 135 0.0 0.0 0.00 0.00 0.00 92 1059.4
20260502233447 11 135 0.0 0.0 0.00 0.00 0.00 92 1059.4
20260502233325 11 135 0.0 0.0 0.00 0.00 0.00 92 1059.4
20260502233205 11 157 0.0 0.0 0.00 0.00 0.00 92 1059.5
20260502233051 11 135 0.0 0.0 0.00 0.00 0.00 92 1059.5
20260502232938 11 180 9.7 0.0 0.00 0.00 0.00 92 1059.6
20260502232819 11 157 9.7 0.0 0.00 0.00 0.00 92 1059.8
20260502232712 11 180 9.7 0.0 0.00 0.00 0.00 92 1059.8
20260502232600 11 157 8.0 0.0 0.00 0.00 0.00 92 1059.8
20260502232453 11 180 16.1 0.0 0.00 0.00 0.00 92 1059.8
20260502232348 10 157 8.0 0.0 0.00 0.00 0.00 92 1059.8
20260502232245 10 157 12.9 0.0 0.00 0.00 0.00 92 1059.8
20260502232138 10 180 9.7 0.0 0.00 0.00 0.00 92 1059.8
20260502232033 10 135 9.7 0.0 0.00 0.00 0.00 92 1059.9
20260502231913 10 202 14.5 0.0 0.00 0.00 0.00 91 1059.8
20260502231808 10 180 6.4 0.0 0.00 0.00 0.00 91 1059.9
20260502231653 10 135 8.0 0.0 0.00 0.00 0.00 91 1059.8
20260502231541 10 180 8.0 0.0 0.00 0.00 0.00 90 1059.8
20260502231435 10 157 0.0 0.0 0.00 0.00 0.00 90 1059.7
20260502231330 10 135 0.0 0.0 0.00 0.00 0.00 90 1059.6
20260502231219 10 157 0.0 0.0 0.00 0.00 0.00 90 1059.5
20260502231111 10 247 0.0 0.0 0.00 0.00 0.00 90 1059.4
20260502230950 10 247 0.0 0.0 0.00 0.00 0.00 90 1059.4
20260502230836 10 270 0.0 0.0 0.00 0.00 0.00 90 1059.4
20260502230724 10 292 0.0 0.0 0.00 0.00 0.00 90 1059.4
20260502230603 10 315 0.0 0.0 0.00 0.00 0.00 90 1059.4
20260502230457 10 315 0.0 0.0 0.00 0.00 0.00 90 1059.3
20260502230350 10 315 0.0 0.0 0.00 0.00 0.00 90 1059.2
20260502230236 10 315 0.0 0.0 0.00 0.00 0.00 90 1059.2
20260502230129 10 315 0.0 0.0 0.00 0.00 0.00 90 1059.2
20260502230018 10 315 0.0 0.0 0.00 0.00 0.00 90 1059.2
20260502225909 10 315 0.0 0.0 0.00 0.00 0.00 90 1059.2
20260502225755 10 315 0.0 0.0 0.00 0.00 0.00 90 1059.3
20260502225644 10 315 0.0 0.0 0.00 0.00 0.00 90 1059.3
20260502225535 10 315 0.0 0.0 0.00 0.00 0.00 90 1059.3
20260502225420 10 315 0.0 0.0 0.00 0.00 0.00 90 1059.4
20260502225250 10 315 0.0 0.0 0.00 0.00 0.00 90 1059.4
20260502225136 10 315 0.0 0.0 0.00 0.00 0.00 90 1059.4
20260502225031 10 315 0.0 0.0 0.00 0.00 0.00 90 1059.5
20260502224925 10 315 0.0 0.0 0.00 0.00 0.00 90 1059.5
20260502224817 10 315 0.0 0.0 0.00 0.00 0.00 90 1059.5
20260502224657 10 315 0.0 0.0 0.00 0.00 0.00 90 1059.4
20260502224541 10 315 0.0 0.0 0.00 0.00 0.00 90 1059.5
20260502224427 10 315 0.0 0.0 0.00 0.00 0.00 90 1059.5
20260502224322 10 315 0.0 0.0 0.00 0.00 0.00 90 1059.5
20260502224215 10 315 0.0 0.0 0.00 0.00 0.00 90 1059.5
20260502224109 10 315 0.0 0.0 0.00 0.00 0.00 89 1059.5
20260502224002 10 315 0.0 0.0 0.00 0.00 0.00 89 1059.5
20260502223842 10 315 0.0 0.0 0.00 0.00 0.00 89 1059.4
20260502223726 10 315 0.0 0.0 0.00 0.00 0.00 89 1059.4
20260502223611 10 315 0.0 0.0 0.00 0.00 0.00 89 1059.5
20260502223457 10 315 0.0 0.0 0.00 0.00 0.00 89 1059.5
20260502223334 10 315 0.0 0.0 0.00 0.00 0.00 89 1059.5
20260502223221 10 315 0.0 0.0 0.00 0.00 0.00 89 1059.5
20260502223108 10 315 0.0 0.0 0.00 0.00 0.00 89 1059.4
20260502223000 10 315 0.0 0.0 0.00 0.00 0.00 89 1059.4
20260502222840 10 315 0.0 0.0 0.00 0.00 0.00 89 1059.4
20260502222735 10 337 0.0 0.0 0.00 0.00 0.00 89 1059.3
20260502222626 10 337 0.0 0.0 0.00 0.00 0.00 89 1059.2
20260502222511 10 337 0.0 0.0 0.00 0.00 0.00 89 1059.2
20260502222341 10 337 0.0 0.0 0.00 0.00 0.00 89 1059.3
20260502222227 10 337 0.0 0.0 0.00 0.00 0.00 89 1059.4
20260502222121 10 337 0.0 0.0 0.00 0.00 0.00 89 1059.3
20260502222007 10 337 0.0 0.0 0.00 0.00 0.00 89 1059.4
20260502221901 10 337 0.0 0.0 0.00 0.00 0.00 89 1059.4
20260502221749 10 337 0.0 0.0 0.00 0.00 0.00 89 1059.4
20260502221640 10 337 0.0 0.0 0.00 0.00 0.00 89 1059.4
20260502221525 10 337 0.0 0.0 0.00 0.00 0.00 89 1059.3
20260502221412 10 337 0.0 0.0 0.00 0.00 0.00 89 1059.4
20260502221306 10 337 0.0 0.0 0.00 0.00 0.00 89 1059.3
20260502221200 10 337 0.0 0.0 0.00 0.00 0.00 89 1059.2
20260502221054 10 337 0.0 0.0 0.00 0.00 0.00 89 1059.2
20260502220946 10 337 0.0 0.0 0.00 0.00 0.00 89 1059.3
20260502220817 10 337 0.0 0.0 0.00 0.00 0.00 89 1059.3
20260502220703 10 337 0.0 0.0 0.00 0.00 0.00 89 1059.2
20260502220557 10 337 0.0 0.0 0.00 0.00 0.00 89 1059.3
20260502220449 10 337 0.0 0.0 0.00 0.00 0.00 89 1059.2
20260502220330 10 337 0.0 0.0 0.00 0.00 0.00 89 1059.3
20260502220216 10 337 0.0 0.0 0.00 0.00 0.00 89 1059.3
20260502220107 10 337 0.0 0.0 0.00 0.00 0.00 89 1059.3
20260502215954 10 337 0.0 0.0 0.00 0.00 0.00 89 1059.4
20260502215841 11 337 0.0 0.0 0.00 0.00 0.00 89 1059.5
20260502215733 11 337 0.0 0.0 0.00 0.00 0.00 89 1059.4
20260502215614 11 337 0.0 0.0 0.00 0.00 0.00 89 1059.5
20260502215457 11 337 0.0 0.0 0.00 0.00 0.00 89 1059.5
20260502215344 11 337 0.0 0.0 0.00 0.00 0.00 88 1059.4
20260502215224 11 337 0.0 0.0 0.00 0.00 0.00 89 1059.3
20260502215110 11 337 0.0 0.0 0.00 0.00 0.00 89 1059.4
20260502215005 11 337 0.0 0.0 0.00 0.00 0.00 89 1059.3
20260502214858 11 337 0.0 0.0 0.00 0.00 0.00 89 1059.3
20260502214752 11 337 0.0 0.0 0.00 0.00 0.00 89 1059.4
20260502214645 11 337 0.0 0.0 0.00 0.00 0.00 89 1059.4
20260502214526 11 337 0.0 0.0 0.00 0.00 0.00 89 1059.4
20260502214419 11 337 0.0 0.0 0.00 0.00 0.00 89 1059.4
20260502214303 11 337 0.0 0.0 0.00 0.00 0.00 89 1059.4
20260502214148 11 337 0.0 0.0 0.00 0.00 0.00 89 1059.5
20260502214018 11 337 0.0 0.0 0.00 0.00 0.00 89 1059.5
20260502213904 11 337 0.0 0.0 0.00 0.00 0.00 89 1059.6
20260502213758 11 337 0.0 0.0 0.00 0.00 0.00 89 1059.7
20260502213652 11 337 0.0 0.0 0.00 0.00 0.00 89 1059.7
20260502213546 11 337 0.0 0.0 0.00 0.00 0.00 89 1059.6
20260502213440 11 337 0.0 0.0 0.00 0.00 0.00 89 1059.5
20260502213319 11 337 0.0 0.0 0.00 0.00 0.00 89 1059.6
20260502213203 11 337 0.0 0.0 0.00 0.00 0.00 89 1059.6
20260502213049 11 337 0.0 0.0 0.00 0.00 0.00 89 1059.6
20260502212941 11 337 0.0 0.0 0.00 0.00 0.00 89 1059.6
20260502212820 11 337 0.0 0.0 0.00 0.00 0.00 89 1059.5
20260502212706 11 337 0.0 0.0 0.00 0.00 0.00 89 1059.5
20260502212552 11 0 0.0 0.0 0.00 0.00 0.00 89 1059.5
20260502212446 11 337 0.0 0.0 0.00 0.00 0.00 89 1059.5
20260502212338 11 337 0.0 0.0 0.00 0.00 0.00 89 1059.5
20260502212209 11 337 0.0 0.0 0.00 0.00 0.00 89 1059.4
20260502212056 11 337 0.0 0.0 0.00 0.00 0.00 88 1059.5
20260502211948 11 337 0.0 0.0 0.00 0.00 0.00 89 1059.5
20260502211826 11 337 0.0 0.0 0.00 0.00 0.00 89 1059.7
20260502211713 11 337 0.0 0.0 0.00 0.00 0.00 88 1059.6
20260502211559 11 337 0.0 0.0 0.00 0.00 0.00 88 1059.6
20260502211452 11 337 0.0 0.0 0.00 0.00 0.00 88 1059.5
20260502211346 11 337 0.0 0.0 0.00 0.00 0.00 88 1059.5
20260502211240 11 337 0.0 0.0 0.00 0.00 0.00 88 1059.5
20260502211134 11 337 0.0 0.0 0.00 0.00 0.00 88 1059.5
20260502211011 11 337 0.0 0.0 0.00 0.00 0.00 88 1059.5
20260502210857 11 315 3.2 0.0 0.00 0.00 0.00 88 1059.5
20260502210743 11 337 0.0 0.0 0.00 0.00 0.00 88 1059.6
20260502210628 11 0 0.0 0.0 0.00 0.00 0.00 88 1059.5
20260502210513 11 0 0.0 0.0 0.00 0.00 0.00 88 1059.6
20260502210401 11 0 0.0 0.0 0.00 0.00 0.00 88 1059.5
20260502210255 11 0 0.0 0.0 0.00 0.00 0.00 88 1059.6
20260502210148 11 337 0.0 0.0 0.00 0.00 0.00 88 1059.7
20260502210037 11 337 0.0 0.0 0.00 0.00 0.00 88 1059.6
20260502205930 11 315 0.0 0.0 0.00 0.00 0.00 88 1059.7
20260502205809 11 315 0.0 0.0 0.00 0.00 0.00 88 1059.6
20260502205656 11 337 8.0 0.0 0.00 0.00 0.00 88 1059.6
20260502205535 11 337 0.0 0.0 0.00 0.00 0.00 88 1059.7
20260502205422 11 337 0.0 0.0 0.00 0.00 0.00 88 1059.7
20260502205300 11 337 0.0 0.0 0.00 0.00 0.00 88 1059.7
20260502205147 11 315 0.0 0.0 0.00 0.00 0.00 88 1059.8
20260502205034 11 315 0.0 0.0 0.00 0.00 0.00 88 1059.9
20260502204923 11 315 0.0 0.0 0.00 0.00 0.00 88 1059.8
20260502204817 11 315 0.0 0.0 0.00 0.00 0.00 88 1059.9
20260502204712 11 315 0.0 0.0 0.00 0.00 0.00 88 1059.9
20260502204606 11 315 0.0 0.0 0.00 0.00 0.00 88 1059.9
20260502204454 11 315 0.0 0.0 0.00 0.00 0.00 88 1059.9
20260502204348 11 337 0.0 0.0 0.00 0.00 0.00 88 1059.9
20260502204236 11 315 0.0 0.0 0.00 0.00 0.00 88 1059.9
20260502204132 11 315 3.2 0.0 0.00 0.00 0.00 88 1059.9
20260502204017 11 315 0.0 0.0 0.00 0.00 0.00 88 1059.9
20260502203904 11 315 0.0 0.0 0.00 0.00 0.00 88 1059.9
20260502203751 11 315 0.0 0.0 0.00 0.00 0.00 88 1059.9
20260502203646 11 315 0.0 0.0 0.00 0.00 0.00 87 1059.9
20260502203533 11 315 0.0 0.0 0.00 0.00 0.00 88 1059.8
20260502203412 11 315 0.0 0.0 0.00 0.00 0.00 87 1059.9
20260502203258 11 315 0.0 0.0 0.00 0.00 0.00 87 1059.9
20260502203144 11 315 0.0 0.0 0.00 0.00 0.00 87 1059.9
20260502203031 11 315 4.8 0.0 0.00 0.00 0.00 87 1059.9
20260502202911 11 315 0.0 0.0 0.00 0.00 0.00 87 1060.0
20260502202804 11 315 0.0 0.0 0.00 0.00 0.00 87 1060.0
20260502202645 11 337 0.0 0.0 0.00 0.00 0.00 87 1060.0
20260502202542 11 315 0.0 0.0 0.00 0.00 0.00 87 1059.9
20260502202435 11 337 0.0 0.0 0.00 0.00 0.00 87 1060.0
20260502202331 11 337 0.0 0.0 0.00 0.00 0.00 87 1059.9
20260502202226 11 337 0.0 0.0 0.00 0.00 0.00 87 1060.0
20260502202119 11 337 0.0 0.0 0.00 0.00 0.00 87 1060.0
20260502201958 11 337 0.0 0.0 0.00 0.00 0.00 87 1060.0
20260502201837 12 337 0.0 0.0 0.00 0.00 0.00 87 1060.0
20260502201724 12 315 0.0 0.0 0.00 0.00 0.00 87 1060.0
20260502201610 12 337 0.0 0.0 0.00 0.00 0.00 87 1060.0
20260502201442 12 315 0.0 0.0 0.00 0.00 0.00 87 1060.0
20260502201320 12 315 0.0 0.0 0.00 0.00 0.00 87 1060.1
20260502201159 12 337 0.0 0.0 0.00 0.00 0.00 87 1060.0
20260502201046 12 337 0.0 0.0 0.00 0.00 0.00 87 1060.0
20260502200932 12 337 0.0 0.0 0.00 0.00 0.00 87 1060.1
20260502200821 12 337 0.0 0.0 0.00 0.00 0.00 87 1060.0
20260502200658 12 337 0.0 0.0 0.00 0.00 0.00 87 1060.1
20260502200529 12 337 6.4 0.0 0.00 0.00 0.00 87 1060.1
20260502200416 12 337 0.0 0.0 0.00 0.00 0.00 87 1060.1
20260502200310 12 337 0.0 0.0 0.00 0.00 0.00 87 1060.0
20260502200200 12 337 0.0 0.0 0.00 0.00 0.00 87 1060.1
20260502200052 12 337 9.7 0.0 0.00 0.00 0.00 87 1060.1
20260502195933 12 0 0.0 0.0 0.00 0.00 0.00 87 1060.1
20260502195818 12 337 0.0 0.0 0.00 0.00 0.00 86 1060.0
20260502195657 12 315 0.0 0.0 0.00 0.00 0.00 86 1060.1
20260502195527 12 337 4.8 0.0 0.00 0.00 0.00 86 1060.1
20260502195406 12 337 0.0 0.0 0.00 0.00 0.00 86 1060.1
20260502195255 12 292 0.0 0.0 0.00 0.00 0.00 86 1060.1
20260502195148 12 315 0.0 0.0 0.00 0.00 0.00 86 1060.1
20260502195035 12 315 0.0 0.0 0.00 0.00 0.00 86 1060.1
20260502194924 12 315 0.0 0.0 0.00 0.00 0.00 86 1060.1
20260502194817 12 315 0.0 0.0 0.00 0.00 0.00 86 1060.1
20260502194656 12 315 0.0 0.0 0.00 0.00 0.00 86 1060.1
20260502194551 12 315 0.0 0.0 0.00 0.00 0.00 86 1060.1
20260502194429 12 315 0.0 0.0 0.00 0.00 0.00 86 1060.2
20260502194316 12 315 0.0 0.0 0.00 0.00 0.00 86 1060.1
20260502194155 12 315 0.0 0.0 0.00 0.00 0.00 85 1060.1
20260502194044 12 337 0.0 0.0 0.00 0.00 0.00 85 1060.1
20260502193929 12 337 0.0 0.0 0.00 0.00 0.00 85 1060.1
20260502193815 12 315 0.0 0.0 0.00 0.00 0.00 85 1060.2
20260502193646 12 315 8.0 0.0 0.00 0.00 0.00 85 1060.2
20260502193525 12 292 0.0 0.0 0.00 0.00 0.00 85 1060.1
20260502193414 12 315 0.0 0.0 0.00 0.00 0.00 85 1060.1
20260502193308 12 292 0.0 0.0 0.00 0.00 0.00 84 1060.1
20260502193153 12 315 0.0 0.0 0.00 0.00 0.00 84 1060.1
20260502193039 12 315 8.0 0.0 0.00 0.00 0.00 84 1060.1
20260502192916 12 315 0.0 0.0 0.00 0.00 0.00 84 1060.0
20260502192802 12 337 0.0 0.0 0.00 0.00 0.00 84 1060.0
20260502192648 12 337 3.2 0.0 0.00 0.00 0.00 84 1060.0
20260502192543 12 315 0.0 0.0 0.00 0.00 0.00 84 1059.9
20260502192437 12 315 0.0 0.0 0.00 0.00 0.00 84 1060.0
20260502192316 12 315 0.0 0.0 0.00 0.00 0.00 84 1060.0
20260502192203 12 315 0.0 0.0 0.00 0.00 0.00 84 1060.0
20260502192057 12 337 0.0 0.0 0.00 0.00 0.00 84 1060.0
20260502191944 12 337 0.0 0.0 0.00 0.00 0.00 84 1060.0
20260502191830 12 315 6.4 0.0 0.00 0.00 0.00 84 1059.9
20260502191701 12 292 0.0 0.0 0.00 0.00 0.00 84 1060.0
20260502191555 13 315 0.0 0.0 0.00 0.00 0.00 83 1060.0
20260502191434 13 315 0.0 0.0 0.00 0.00 0.00 83 1060.0
20260502191320 13 315 9.7 0.0 0.00 0.00 0.00 83 1060.0
20260502191206 13 315 6.4 0.0 0.00 0.00 0.00 83 1059.8
20260502191101 13 315 0.0 0.0 0.00 0.00 0.00 83 1059.9
20260502190948 13 315 0.0 0.0 0.00 0.00 0.00 82 1059.8
20260502190827 13 337 6.4 0.0 0.00 0.00 0.00 82 1059.9
20260502190712 13 315 0.0 0.0 0.00 0.00 0.00 82 1059.8
20260502190559 13 337 0.0 0.0 0.00 0.00 0.00 82 1059.8
20260502190446 13 315 0.0 0.0 0.00 0.00 0.00 82 1059.9
20260502190335 13 337 0.0 0.0 0.00 0.00 0.00 82 1059.8
20260502190227 13 337 8.0 0.0 0.00 0.00 0.00 82 1059.9
20260502190101 13 315 0.0 0.0 0.00 0.00 0.00 82 1059.8
20260502185953 13 337 0.0 0.0 0.00 0.00 0.00 81 1059.8
20260502185832 13 315 3.2 0.0 0.00 0.00 0.00 81 1059.8
20260502185721 13 337 3.2 0.0 0.00 0.00 0.00 81 1059.7
20260502185558 13 292 0.0 0.0 0.00 0.00 0.00 81 1059.9
20260502185445 14 315 0.0 0.0 0.00 0.00 0.00 81 1059.8
20260502185339 14 315 8.0 0.0 0.00 0.00 0.00 80 1059.9
20260502185227 14 337 9.7 0.0 0.00 0.00 0.00 80 1059.9
20260502185107 14 292 6.4 0.0 0.00 0.00 0.00 80 1059.9
20260502185001 14 337 6.4 0.0 0.00 0.00 0.00 79 1059.9
20260502184847 15 292 8.0 0.0 0.00 0.00 0.00 78 1059.9
20260502184741 15 315 0.0 0.0 0.00 0.00 0.00 78 1059.8
20260502184619 15 337 4.8 0.0 0.00 0.00 0.00 78 1059.8
20260502184442 15 0 9.7 0.0 0.00 0.00 0.00 77 1059.8
20260502184328 15 270 0.0 0.0 0.00 0.00 0.00 76 1059.8
20260502184215 15 292 6.4 0.0 0.00 0.00 0.00 76 1059.8
20260502184111 15 315 4.8 0.0 0.00 0.00 0.00 76 1059.8
20260502184005 15 292 9.7 0.0 0.00 0.00 0.00 75 1059.8
20260502183844 15 315 8.0 0.0 0.00 0.00 0.00 75 1059.8
20260502183740 15 337 8.0 0.0 0.00 0.00 0.00 75 1059.8
20260502183634 15 337 9.7 0.0 0.00 0.00 0.00 74 1059.9
20260502183512 15 337 6.4 0.0 0.00 0.00 0.00 73 1059.9
20260502183402 15 0 6.4 0.0 0.00 0.00 0.00 73 1059.9
20260502183254 16 315 9.7 0.0 0.00 0.00 0.00 72 1059.9
20260502183143 16 315 12.9 0.0 0.00 0.00 0.00 72 1059.9
20260502183037 16 337 3.2 0.0 0.00 0.00 0.00 71 1060.0
20260502182926 16 315 0.0 0.0 0.00 0.00 0.00 71 1060.0
20260502182820 16 0 0.0 0.0 0.00 0.00 0.00 71 1059.9
20260502182714 16 0 0.0 0.0 0.00 0.00 0.00 71 1059.9
20260502182607 16 337 6.4 0.0 0.00 0.00 0.00 71 1060.0
20260502182446 16 337 9.7 0.0 0.00 0.00 0.00 71 1059.9
20260502182332 16 315 9.7 0.0 0.00 0.00 0.00 70 1059.9
20260502182212 16 315 3.2 0.0 0.00 0.00 0.00 70 1060.0
20260502182058 16 315 6.4 0.0 0.00 0.00 0.00 70 1060.0
20260502181937 16 337 6.4 0.0 0.00 0.00 0.00 70 1060.0
20260502181824 16 0 0.0 0.0 0.00 0.00 0.00 70 1059.9
20260502181710 16 337 0.0 0.0 0.00 0.00 0.00 70 1060.0
20260502181550 16 315 6.4 0.0 0.00 0.00 0.00 70 1059.9
20260502181436 17 337 0.0 0.0 0.00 0.00 0.00 70 1059.9
20260502181307 17 315 3.2 0.0 0.00 0.00 0.00 70 1060.0
20260502181146 17 315 0.0 0.0 0.00 0.00 0.00 69 1060.0
20260502181042 17 315 6.4 0.0 0.00 0.00 0.00 69 1060.0
20260502180937 17 315 0.0 0.0 0.00 0.00 0.00 69 1060.0
20260502180830 17 315 1.6 0.0 0.00 0.00 0.00 69 1060.0
20260502180710 17 337 4.8 0.0 0.00 0.00 0.00 69 1060.0
20260502180556 17 315 4.8 0.0 0.00 0.00 0.00 69 1060.0
20260502180427 17 315 0.0 0.0 0.00 0.00 0.00 69 1060.0
20260502180314 17 315 9.7 0.0 0.00 0.00 0.00 69 1060.0
20260502180200 17 0 0.0 0.0 0.00 0.00 0.00 69 1060.1
20260502170422 18 315 9.7 0.0 0.00 0.00 0.00 69 1060.3
20260502170314 18 337 12.9 0.0 0.00 0.00 0.00 70 1060.3
20260502170201 18 315 4.8 0.0 0.00 0.00 0.00 70 1060.2
20260502164246 18 0 0.0 0.0 0.00 0.00 0.00 72 1060.3
20260502164137 18 337 9.7 0.0 0.00 0.00 0.00 72 1060.3
20260502164024 18 292 12.9 0.0 0.00 0.00 0.00 72 1060.3
20260502163910 18 315 14.5 0.0 0.00 0.00 0.00 73 1060.3
20260502163756 18 315 8.0 0.0 0.00 0.00 0.00 73 1060.3
20260502163644 18 315 6.4 0.0 0.00 0.00 0.00 73 1060.2
20260502163537 18 292 6.4 0.0 0.00 0.00 0.00 73 1060.3
20260502163416 18 315 6.4 0.0 0.00 0.00 0.00 73 1060.2
20260502163311 18 337 4.8 0.0 0.00 0.00 0.00 73 1060.2
20260502163149 18 337 0.0 0.0 0.00 0.00 0.00 73 1060.3
20260502163038 18 315 8.0 0.0 0.00 0.00 0.00 73 1060.3
20260502162932 18 337 6.4 0.0 0.00 0.00 0.00 73 1060.2
20260502162819 18 315 8.0 0.0 0.00 0.00 0.00 73 1060.3
20260502162713 18 292 11.3 0.0 0.00 0.00 0.00 73 1060.2
20260502162608 18 315 0.0 0.0 0.00 0.00 0.00 73 1060.3
20260502162501 18 337 9.7 0.0 0.00 0.00 0.00 73 1060.2
20260502162355 18 292 0.0 0.0 0.00 0.00 0.00 73 1060.4
20260502162248 18 315 6.4 0.0 0.00 0.00 0.00 73 1060.3
20260502162129 18 315 8.0 0.0 0.00 0.00 0.00 73 1060.3
20260502162021 18 337 17.7 0.0 0.00 0.00 0.00 73 1060.3
20260502161908 18 315 14.5 0.0 0.00 0.00 0.00 73 1060.3
20260502161756 18 315 6.4 0.0 0.00 0.00 0.00 73 1060.4
20260502161650 18 315 8.0 0.0 0.00 0.00 0.00 73 1060.4
20260502161530 18 315 11.3 0.0 0.00 0.00 0.00 73 1060.4
20260502161417 18 45 4.8 0.0 0.00 0.00 0.00 73 1060.3
20260502161312 18 292 3.2 0.0 0.00 0.00 0.00 73 1060.4
20260502161207 18 315 9.7 0.0 0.00 0.00 0.00 73 1060.4
20260502161058 18 315 6.4 0.0 0.00 0.00 0.00 73 1060.4
20260502160946 18 337 6.4 0.0 0.00 0.00 0.00 73 1060.3
20260502160841 18 315 9.7 0.0 0.00 0.00 0.00 73 1060.4
20260502160713 18 315 6.4 0.0 0.00 0.00 0.00 72 1060.4
20260502160559 18 315 6.4 0.0 0.00 0.00 0.00 72 1060.3
20260502160445 18 292 11.3 0.0 0.00 0.00 0.00 72 1060.3
20260502160331 18 337 6.4 0.0 0.00 0.00 0.00 72 1060.4
20260502160219 18 292 9.7 0.0 0.00 0.00 0.00 71 1060.4
20260502160105 18 270 14.5 0.0 0.00 0.00 0.00 71 1060.4
20260502152335 21 315 8.0 0.0 0.00 0.00 0.00 66 1060.4
20260502152229 21 292 9.7 0.0 0.00 0.00 0.00 66 1060.4
20260502152059 21 292 8.0 0.0 0.00 0.00 0.00 66 1060.5
20260502151945 21 315 8.0 0.0 0.00 0.00 0.00 66 1060.5
20260502151830 21 315 9.7 0.0 0.00 0.00 0.00 66 1060.5
20260502151709 21 0 4.8 0.0 0.00 0.00 0.00 66 1060.5
20260502151547 21 315 11.3 0.0 0.00 0.00 0.00 66 1060.5
20260502151428 21 337 6.4 0.0 0.00 0.00 0.00 66 1060.5
20260502151321 21 292 4.8 0.0 0.00 0.00 0.00 65 1060.5
20260502151208 21 292 16.1 0.0 0.00 0.00 0.00 65 1060.5
20260502151047 21 292 9.7 0.0 0.00 0.00 0.00 65 1060.6
20260502150934 21 270 4.8 0.0 0.00 0.00 0.00 66 1060.5
20260502150820 21 337 4.8 0.0 0.00 0.00 0.00 66 1060.5
20260502150652 21 292 6.4 0.0 0.00 0.00 0.00 66 1060.6
20260502150546 21 292 0.0 0.0 0.00 0.00 0.00 65 1060.6
20260502150440 21 337 0.0 0.0 0.00 0.00 0.00 65 1060.6
20260502150319 21 292 8.0 0.0 0.00 0.00 0.00 65 1060.7
20260502150204 21 315 14.5 0.0 0.00 0.00 0.00 65 1060.7
20260502140108 20 315 4.8 0.0 0.00 0.00 0.00 64 1061.0
20260502130633 21 315 6.4 0.0 0.00 0.00 0.00 48 1061.4
20260502130526 22 292 9.7 0.0 0.00 0.00 0.00 48 1061.3
20260502130413 22 292 9.7 0.0 0.00 0.00 0.00 47 1061.3
20260502130300 22 315 11.3 0.0 0.00 0.00 0.00 47 1061.3
20260502130138 22 315 9.7 0.0 0.00 0.00 0.00 47 1061.3
20260502123750 20 315 8.0 0.0 0.00 0.00 0.00 54 1061.5
20260502123643 20 292 4.8 0.0 0.00 0.00 0.00 55 1061.6
20260502123522 20 292 9.7 0.0 0.00 0.00 0.00 55 1061.6
20260502123409 20 315 6.4 0.0 0.00 0.00 0.00 55 1061.5
20260502123255 20 270 8.0 0.0 0.00 0.00 0.00 56 1061.5
20260502123135 20 315 1.6 0.0 0.00 0.00 0.00 56 1061.6
20260502123030 20 315 8.0 0.0 0.00 0.00 0.00 57 1061.6
20260502122923 20 270 6.4 0.0 0.00 0.00 0.00 57 1061.6
20260502122804 20 292 9.7 0.0 0.00 0.00 0.00 57 1061.7
20260502122650 20 270 3.2 0.0 0.00 0.00 0.00 57 1061.6
20260502122536 20 337 6.4 0.0 0.00 0.00 0.00 57 1061.7
20260502122424 20 292 8.0 0.0 0.00 0.00 0.00 57 1061.7
20260502122310 20 292 4.8 0.0 0.00 0.00 0.00 57 1061.7
20260502122149 20 337 0.0 0.0 0.00 0.00 0.00 56 1061.7
20260502122020 20 292 9.7 0.0 0.00 0.00 0.00 56 1061.7
20260502121907 20 292 11.3 0.0 0.00 0.00 0.00 55 1061.7
20260502121802 20 292 11.3 0.0 0.00 0.00 0.00 55 1061.7
20260502121643 20 315 0.0 0.0 0.00 0.00 0.00 54 1061.7
20260502121538 20 292 9.7 0.0 0.00 0.00 0.00 54 1061.7
20260502121431 21 292 6.4 0.0 0.00 0.00 0.00 53 1061.7
20260502121309 21 292 8.0 0.0 0.00 0.00 0.00 52 1061.7
20260502121148 21 315 9.7 0.0 0.00 0.00 0.00 52 1061.6
20260502121035 22 270 16.1 0.0 0.00 0.00 0.00 50 1061.6
20260502120914 22 292 24.1 0.0 0.00 0.00 0.00 50 1061.6
20260502120801 22 315 16.1 0.0 0.00 0.00 0.00 49 1061.7
20260502120647 22 292 9.7 0.0 0.00 0.00 0.00 49 1061.7
20260502120535 22 270 17.7 0.0 0.00 0.00 0.00 48 1061.7
20260502120421 22 270 6.4 0.0 0.00 0.00 0.00 48 1061.7
20260502120301 22 292 6.4 0.0 0.00 0.00 0.00 48 1061.7
20260502120148 22 315 6.4 0.0 0.00 0.00 0.00 47 1061.7
20260502115833 23 270 9.7 0.0 0.00 0.00 0.00 47 1061.7
20260502115727 23 270 11.3 0.0 0.00 0.00 0.00 47 1061.6
20260502115606 23 292 6.4 0.0 0.00 0.00 0.00 46 1061.7
20260502115453 23 270 8.0 0.0 0.00 0.00 0.00 46 1061.6
20260502115340 23 315 9.7 0.0 0.00 0.00 0.00 46 1061.7
20260502115235 23 292 8.0 0.0 0.00 0.00 0.00 47 1061.6
20260502115123 23 292 8.0 0.0 0.00 0.00 0.00 46 1061.6
20260502115017 22 270 9.7 0.0 0.00 0.00 0.00 46 1061.6
20260502114906 22 247 11.3 0.0 0.00 0.00 0.00 46 1061.7
20260502114759 22 315 8.0 0.0 0.00 0.00 0.00 46 1061.7
20260502114647 22 315 8.0 0.0 0.00 0.00 0.00 46 1061.7
20260502114540 22 292 9.7 0.0 0.00 0.00 0.00 46 1061.7
20260502114425 22 292 9.7 0.0 0.00 0.00 0.00 45 1061.8
20260502114305 22 315 14.5 0.0 0.00 0.00 0.00 45 1061.8
20260502114155 22 315 9.7 0.0 0.00 0.00 0.00 45 1061.8
20260502114050 22 270 12.9 0.0 0.00 0.00 0.00 45 1061.8
20260502113943 22 315 3.2 0.0 0.00 0.00 0.00 45 1061.8
20260502113830 22 292 6.4 0.0 0.00 0.00 0.00 45 1061.8
20260502113726 22 315 6.4 0.0 0.00 0.00 0.00 46 1061.7
20260502113620 22 292 9.7 0.0 0.00 0.00 0.00 46 1061.8
20260502113510 22 292 3.2 0.0 0.00 0.00 0.00 46 1061.8
20260502113405 21 315 9.7 0.0 0.00 0.00 0.00 46 1061.8
20260502113252 21 292 8.0 0.0 0.00 0.00 0.00 46 1061.8
20260502113144 21 247 9.7 0.0 0.00 0.00 0.00 46 1061.8
20260502113034 21 270 4.8 0.0 0.00 0.00 0.00 46 1061.8
20260502112927 21 270 4.8 0.0 0.00 0.00 0.00 45 1061.7
20260502112805 21 292 11.3 0.0 0.00 0.00 0.00 45 1061.8
20260502112653 21 292 9.7 0.0 0.00 0.00 0.00 45 1061.8
20260502112547 22 270 9.7 0.0 0.00 0.00 0.00 45 1061.8
20260502112435 22 292 6.4 0.0 0.00 0.00 0.00 44 1061.8
20260502112309 22 292 6.4 0.0 0.00 0.00 0.00 43 1061.8
20260502112204 22 292 9.7 0.0 0.00 0.00 0.00 43 1061.8
20260502112057 23 315 3.2 0.0 0.00 0.00 0.00 43 1061.6
20260502111945 23 292 16.1 0.0 0.00 0.00 0.00 43 1061.8
20260502111833 23 292 8.0 0.0 0.00 0.00 0.00 41 1061.8
20260502111727 23 292 6.4 0.0 0.00 0.00 0.00 38 1061.8
20260502111622 23 270 0.0 0.0 0.00 0.00 0.00 38 1061.8
20260502111509 24 247 3.2 0.0 0.00 0.00 0.00 38 1061.8
20260502111357 24 292 3.2 0.0 0.00 0.00 0.00 38 1061.7
20260502111246 24 270 0.0 0.0 0.00 0.00 0.00 38 1061.8
20260502111138 25 247 0.0 0.0 0.00 0.00 0.00 37 1061.7
20260502111027 25 292 6.4 0.0 0.00 0.00 0.00 37 1061.7
20260502110921 25 247 0.0 0.0 0.00 0.00 0.00 37 1061.7
20260502110808 25 225 6.4 0.0 0.00 0.00 0.00 36 1061.7
20260502110658 25 225 0.0 0.0 0.00 0.00 0.00 36 1061.7
20260502110550 26 225 16.1 0.0 0.00 0.00 0.00 36 1061.7
20260502110430 26 225 4.8 0.0 0.00 0.00 0.00 36 1061.7
20260502110324 26 270 9.7 0.0 0.00 0.00 0.00 36 1061.6
20260502110213 26 180 6.4 0.0 0.00 0.00 0.00 36 1061.7
20260502110107 26 202 0.0 0.0 0.00 0.00 0.00 35 1061.6
20260502105933 26 247 11.3 0.0 0.00 0.00 0.00 34 1061.7
20260502105810 26 225 3.2 0.0 0.00 0.00 0.00 34 1061.7
20260502105657 27 270 6.4 0.0 0.00 0.00 0.00 34 1061.7
20260502105552 27 180 4.8 0.0 0.00 0.00 0.00 34 1061.6
20260502105430 27 225 6.4 0.0 0.00 0.00 0.00 34 1061.7
20260502105309 26 270 8.0 0.0 0.00 0.00 0.00 34 1061.8
20260502105158 26 225 8.0 0.0 0.00 0.00 0.00 34 1061.7
20260502105052 26 247 8.0 0.0 0.00 0.00 0.00 34 1061.7
20260502104939 26 202 12.9 0.0 0.00 0.00 0.00 35 1061.6
20260502104819 26 202 16.1 0.0 0.00 0.00 0.00 36 1061.7
20260502104707 26 180 8.0 0.0 0.00 0.00 0.00 36 1061.7
20260502104600 26 225 4.8 0.0 0.00 0.00 0.00 38 1061.7
20260502104439 25 180 6.4 0.0 0.00 0.00 0.00 38 1061.7
20260502104327 25 202 8.0 0.0 0.00 0.00 0.00 37 1061.7
20260502104221 25 180 12.9 0.0 0.00 0.00 0.00 38 1061.7
20260502104052 25 202 12.9 0.0 0.00 0.00 0.00 38 1061.7
20260502103930 25 202 0.0 0.0 0.00 0.00 0.00 38 1061.7
20260502103819 25 157 0.0 0.0 0.00 0.00 0.00 38 1061.7
20260502103706 25 202 8.0 0.0 0.00 0.00 0.00 38 1061.7
20260502103601 25 202 0.0 0.0 0.00 0.00 0.00 38 1061.8
20260502103456 25 202 4.8 0.0 0.00 0.00 0.00 37 1061.7
20260502103350 25 202 3.2 0.0 0.00 0.00 0.00 37 1061.7
20260502103237 25 180 12.9 0.0 0.00 0.00 0.00 37 1061.8
20260502103124 25 225 12.9 0.0 0.00 0.00 0.00 36 1061.7
20260502102957 25 180 12.9 0.0 0.00 0.00 0.00 36 1061.8
20260502102851 26 202 11.3 0.0 0.00 0.00 0.00 36 1061.8
20260502102746 26 247 8.0 0.0 0.00 0.00 0.00 36 1061.8
20260502102633 26 157 1.6 0.0 0.00 0.00 0.00 35 1061.7
20260502102515 26 180 6.4 0.0 0.00 0.00 0.00 35 1061.8
20260502102409 26 202 4.8 0.0 0.00 0.00 0.00 35 1061.8
20260502102256 26 157 6.4 0.0 0.00 0.00 0.00 36 1061.7
20260502102144 26 180 4.8 0.0 0.00 0.00 0.00 36 1061.8
20260502102040 26 157 3.2 0.0 0.00 0.00 0.00 36 1061.8
20260502101934 26 180 3.2 0.0 0.00 0.00 0.00 35 1061.7
20260502101829 26 180 8.0 0.0 0.00 0.00 0.00 36 1061.7
20260502101725 26 135 4.8 0.0 0.00 0.00 0.00 36 1061.8
20260502101617 26 157 8.0 0.0 0.00 0.00 0.00 37 1061.8
20260502101458 26 202 11.3 0.0 0.00 0.00 0.00 36 1061.8
20260502101355 26 180 6.4 0.0 0.00 0.00 0.00 37 1061.7
20260502101249 25 202 0.0 0.0 0.00 0.00 0.00 38 1061.6
20260502101144 25 225 0.0 0.0 0.00 0.00 0.00 37 1061.7
20260502101037 25 202 14.5 0.0 0.00 0.00 0.00 37 1061.7
20260502100925 25 180 9.7 0.0 0.00 0.00 0.00 37 1061.8
20260502100819 25 157 0.0 0.0 0.00 0.00 0.00 38 1061.9
20260502100706 25 157 6.4 0.0 0.00 0.00 0.00 37 1061.9
20260502100554 25 180 8.0 0.0 0.00 0.00 0.00 37 1062.0
20260502100442 25 180 9.7 0.0 0.00 0.00 0.00 37 1062.0
20260502100336 25 180 1.6 0.0 0.00 0.00 0.00 37 1062.0
20260502100230 25 157 3.2 0.0 0.00 0.00 0.00 37 1062.0
20260502100110 25 157 8.0 0.0 0.00 0.00 0.00 36 1062.1
20260502091452 25 157 9.7 0.0 0.00 0.00 0.00 38 1062.3
20260502091338 25 157 9.7 0.0 0.00 0.00 0.00 38 1062.3
20260502091227 25 180 8.0 0.0 0.00 0.00 0.00 38 1062.3
20260502091120 25 180 4.8 0.0 0.00 0.00 0.00 38 1062.3
20260502091000 25 157 6.4 0.0 0.00 0.00 0.00 38 1062.3
20260502090857 25 202 9.7 0.0 0.00 0.00 0.00 39 1062.3
20260502090750 25 202 16.1 0.0 0.00 0.00 0.00 39 1062.3
20260502090645 25 157 9.7 0.0 0.00 0.00 0.00 38 1062.3
20260502090540 25 157 11.3 0.0 0.00 0.00 0.00 38 1062.3
20260502090435 25 157 14.5 0.0 0.00 0.00 0.00 38 1062.3
20260502090329 25 157 14.5 0.0 0.00 0.00 0.00 37 1062.4
20260502090209 25 135 9.7 0.0 0.00 0.00 0.00 37 1062.4
20260502071441 21 180 6.4 0.0 0.00 0.00 0.00 47 1062.9
20260502071319 21 157 16.1 0.0 0.00 0.00 0.00 48 1062.8
20260502071206 21 180 9.7 0.0 0.00 0.00 0.00 47 1062.8
20260502071055 21 135 6.4 0.0 0.00 0.00 0.00 47 1062.8
20260502070948 20 157 8.0 0.0 0.00 0.00 0.00 48 1062.8
20260502070836 20 180 4.8 0.0 0.00 0.00 0.00 48 1062.9
20260502070730 20 157 12.9 0.0 0.00 0.00 0.00 48 1062.9
20260502070625 20 157 8.0 0.0 0.00 0.00 0.00 47 1062.8
20260502070503 20 135 3.2 0.0 0.00 0.00 0.00 47 1062.9
20260502070350 20 157 11.3 0.0 0.00 0.00 0.00 50 1062.8
20260502070222 20 157 0.0 0.0 0.00 0.00 0.00 50 1062.9
20260502070119 20 202 6.4 0.0 0.00 0.00 0.00 50 1062.9
20260502070013 20 202 6.4 0.0 0.00 0.00 0.00 52 1062.9
20260502065859 19 202 4.8 0.0 0.00 0.00 0.00 52 1062.9
20260502065753 19 157 8.0 0.0 0.00 0.00 0.00 52 1062.9
20260502065640 19 157 8.0 0.0 0.00 0.00 0.00 52 1062.9
20260502065518 18 157 9.7 0.0 0.00 0.00 0.00 52 1062.9
20260502065406 18 157 9.7 0.0 0.00 0.00 0.00 53 1062.9
20260502065252 18 202 9.7 0.0 0.00 0.00 0.00 54 1062.9
20260502065133 18 157 12.9 0.0 0.00 0.00 0.00 55 1062.9
20260502065019 18 157 9.7 0.0 0.00 0.00 0.00 55 1062.9
20260502064913 18 157 8.0 0.0 0.00 0.00 0.00 54 1062.8
20260502064759 18 202 11.3 0.0 0.00 0.00 0.00 54 1062.9
20260502064638 18 202 9.7 0.0 0.00 0.00 0.00 55 1062.8
20260502064518 18 157 6.4 0.0 0.00 0.00 0.00 54 1062.8
20260502064413 18 180 17.7 0.0 0.00 0.00 0.00 54 1062.9
20260502064307 18 157 6.4 0.0 0.00 0.00 0.00 55 1062.8
20260502064147 17 157 9.7 0.0 0.00 0.00 0.00 56 1062.8
20260502064041 17 157 9.7 0.0 0.00 0.00 0.00 55 1062.9
20260502063928 17 157 8.0 0.0 0.00 0.00 0.00 56 1062.9
20260502063814 17 180 8.0 0.0 0.00 0.00 0.00 55 1062.9
20260502063646 17 202 12.9 0.0 0.00 0.00 0.00 55 1063.0
20260502063533 17 157 14.5 0.0 0.00 0.00 0.00 56 1063.0
20260502063420 17 202 9.7 0.0 0.00 0.00 0.00 56 1063.0
20260502063307 17 180 11.3 0.0 0.00 0.00 0.00 56 1062.9
20260502063153 17 225 14.5 0.0 0.00 0.00 0.00 56 1062.9
20260502063039 17 157 11.3 0.0 0.00 0.00 0.00 56 1062.9
20260502062927 17 180 9.7 0.0 0.00 0.00 0.00 56 1062.9
20260502062816 17 180 11.3 0.0 0.00 0.00 0.00 56 1062.9
20260502062708 16 157 8.0 0.0 0.00 0.00 0.00 56 1062.9
20260502062547 16 135 9.7 0.0 0.00 0.00 0.00 56 1062.9
20260502062426 17 180 14.5 0.0 0.00 0.00 0.00 55 1062.9
20260502062306 17 180 16.1 0.0 0.00 0.00 0.00 56 1062.9
20260502062200 17 135 9.7 0.0 0.00 0.00 0.00 56 1062.9
20260502062038 16 180 6.4 0.0 0.00 0.00 0.00 56 1063.0
20260502061917 16 202 12.9 0.0 0.00 0.00 0.00 57 1062.9
20260502061749 16 180 9.7 0.0 0.00 0.00 0.00 57 1062.9
20260502061642 16 157 14.5 0.0 0.00 0.00 0.00 58 1062.9
20260502061530 16 157 9.7 0.0 0.00 0.00 0.00 58 1062.9
20260502061424 16 157 14.5 0.0 0.00 0.00 0.00 58 1062.9
20260502061303 16 180 8.0 0.0 0.00 0.00 0.00 58 1062.9
20260502061152 16 180 9.7 0.0 0.00 0.00 0.00 58 1063.0
20260502061046 16 157 14.5 0.0 0.00 0.00 0.00 58 1062.9
20260502060939 16 157 9.7 0.0 0.00 0.00 0.00 58 1062.9
20260502060825 16 157 4.8 0.0 0.00 0.00 0.00 58 1062.9
20260502060700 16 157 11.3 0.0 0.00 0.00 0.00 58 1063.0
20260502060552 16 157 16.1 0.0 0.00 0.00 0.00 58 1062.9
20260502060439 16 157 9.7 0.0 0.00 0.00 0.00 58 1062.9
20260502060334 15 180 14.5 0.0 0.00 0.00 0.00 59 1062.9
20260502060229 15 157 9.7 0.0 0.00 0.00 0.00 58 1063.0
20260502060107 15 157 12.9 0.0 0.00 0.00 0.00 58 1062.9
20260502055938 15 180 16.1 0.0 0.00 0.00 0.00 59 1063.0
20260502055817 15 180 6.4 0.0 0.00 0.00 0.00 59 1063.0
20260502055704 15 180 12.9 0.0 0.00 0.00 0.00 59 1063.0
20260502055553 15 157 14.5 0.0 0.00 0.00 0.00 59 1063.0
20260502055448 15 180 12.9 0.0 0.00 0.00 0.00 59 1063.0
20260502055340 15 202 9.7 0.0 0.00 0.00 0.00 59 1062.9
20260502055221 15 180 9.7 0.0 0.00 0.00 0.00 59 1063.0
20260502055117 15 157 6.4 0.0 0.00 0.00 0.00 59 1063.0
20260502055009 15 157 14.5 0.0 0.00 0.00 0.00 60 1063.1
20260502054857 15 135 6.4 0.0 0.00 0.00 0.00 60 1063.1
20260502054752 15 157 9.7 0.0 0.00 0.00 0.00 60 1063.0
20260502054646 15 157 11.3 0.0 0.00 0.00 0.00 60 1063.1
20260502054536 15 180 8.0 0.0 0.00 0.00 0.00 61 1063.0
20260502054430 15 157 8.0 0.0 0.00 0.00 0.00 61 1063.1
20260502054309 14 180 8.0 0.0 0.00 0.00 0.00 61 1063.1
20260502054202 14 157 12.9 0.0 0.00 0.00 0.00 61 1063.1
20260502054049 14 180 9.7 0.0 0.00 0.00 0.00 61 1063.1
20260502053944 14 180 12.9 0.0 0.00 0.00 0.00 61 1063.1
20260502053832 14 225 11.3 0.0 0.00 0.00 0.00 61 1063.2
20260502053710 14 180 12.9 0.0 0.00 0.00 0.00 62 1063.2
20260502053557 14 157 6.4 0.0 0.00 0.00 0.00 62 1063.2
20260502053451 13 180 9.7 0.0 0.00 0.00 0.00 63 1063.2
20260502053332 13 180 12.9 0.0 0.00 0.00 0.00 63 1063.2
20260502053225 13 180 9.7 0.0 0.00 0.00 0.00 62 1063.1
20260502053115 13 180 8.0 0.0 0.00 0.00 0.00 62 1063.2
20260502053008 13 180 11.3 0.0 0.00 0.00 0.00 62 1063.2
20260502052902 13 180 11.3 0.0 0.00 0.00 0.00 62 1063.2
20260502052740 13 202 12.9 0.0 0.00 0.00 0.00 62 1063.2
20260502052620 13 157 8.0 0.0 0.00 0.00 0.00 62 1063.2
20260502052506 13 180 12.9 0.0 0.00 0.00 0.00 63 1063.2
20260502052337 13 157 8.0 0.0 0.00 0.00 0.00 63 1063.1
20260502052224 13 180 16.1 0.0 0.00 0.00 0.00 63 1063.2
20260502052105 13 180 11.3 0.0 0.00 0.00 0.00 64 1063.1
20260502051957 13 157 14.5 0.0 0.00 0.00 0.00 64 1063.1
20260502051836 13 157 6.4 0.0 0.00 0.00 0.00 64 1063.2
20260502051725 13 157 16.1 0.0 0.00 0.00 0.00 64 1063.2
20260502051611 13 180 9.7 0.0 0.00 0.00 0.00 64 1063.1
20260502051504 13 157 8.0 0.0 0.00 0.00 0.00 64 1063.2
20260502051343 13 180 12.9 0.0 0.00 0.00 0.00 64 1063.2
20260502051229 13 157 11.3 0.0 0.00 0.00 0.00 64 1063.1
20260502051108 13 157 9.7 0.0 0.00 0.00 0.00 64 1063.3
20260502050954 13 180 12.9 0.0 0.00 0.00 0.00 64 1063.3
20260502050840 13 180 16.1 0.0 0.00 0.00 0.00 64 1063.4
20260502050718 13 180 9.7 0.0 0.00 0.00 0.00 64 1063.4
20260502050555 13 157 11.3 0.0 0.00 0.00 0.00 64 1063.3
20260502050445 13 157 9.7 0.0 0.00 0.00 0.00 65 1063.2
20260502050328 13 180 11.3 0.0 0.00 0.00 0.00 65 1063.3
20260502050217 13 180 8.0 0.0 0.00 0.00 0.00 65 1063.2
20260502050111 12 157 12.9 0.0 0.00 0.00 0.00 65 1063.2
20260502050006 13 180 9.7 0.0 0.00 0.00 0.00 65 1063.2
20260502045900 13 157 8.0 0.0 0.00 0.00 0.00 65 1063.2
20260502045757 13 157 11.3 0.0 0.00 0.00 0.00 65 1063.2
20260502045650 12 180 14.5 0.0 0.00 0.00 0.00 65 1063.2
20260502045545 12 180 9.7 0.0 0.00 0.00 0.00 65 1063.2
20260502045440 12 180 11.3 0.0 0.00 0.00 0.00 65 1063.2
20260502045327 12 180 14.5 0.0 0.00 0.00 0.00 65 1063.3
20260502045207 12 157 6.4 0.0 0.00 0.00 0.00 65 1063.2
20260502045045 12 157 11.3 0.0 0.00 0.00 0.00 65 1063.2
20260502044926 12 180 6.4 0.0 0.00 0.00 0.00 65 1063.2
20260502044819 12 180 9.7 0.0 0.00 0.00 0.00 65 1063.2
20260502044708 12 180 8.0 0.0 0.00 0.00 0.00 66 1063.1
20260502044555 12 180 9.7 0.0 0.00 0.00 0.00 66 1063.2
20260502044442 12 157 9.7 0.0 0.00 0.00 0.00 66 1063.3
20260502044335 12 157 0.0 0.0 0.00 0.00 0.00 66 1063.2
20260502044214 12 157 12.9 0.0 0.00 0.00 0.00 67 1063.3
20260502044109 12 180 8.0 0.0 0.00 0.00 0.00 67 1063.1
20260502043948 12 180 4.8 0.0 0.00 0.00 0.00 67 1063.2
20260502043833 12 180 4.8 0.0 0.00 0.00 0.00 68 1063.3
20260502043712 12 180 4.8 0.0 0.00 0.00 0.00 68 1063.2
20260502043551 12 180 0.0 0.0 0.00 0.00 0.00 68 1063.2
20260502043439 11 180 12.9 0.0 0.00 0.00 0.00 69 1063.3
20260502043326 11 180 4.8 0.0 0.00 0.00 0.00 69 1063.2
20260502043204 11 157 9.7 0.0 0.00 0.00 0.00 70 1063.2
20260502043050 11 180 4.8 0.0 0.00 0.00 0.00 70 1063.2
20260502042931 11 180 0.0 0.0 0.00 0.00 0.00 70 1063.2
20260502042814 11 180 9.7 0.0 0.00 0.00 0.00 70 1063.2
20260502042701 11 157 0.0 0.0 0.00 0.00 0.00 71 1063.1
20260502042554 11 180 9.7 0.0 0.00 0.00 0.00 71 1063.2
20260502042442 11 180 0.0 0.0 0.00 0.00 0.00 71 1063.1
20260502042328 11 180 12.9 0.0 0.00 0.00 0.00 71 1063.2
20260502042213 11 180 9.7 0.0 0.00 0.00 0.00 71 1063.2
20260502042058 11 180 8.0 0.0 0.00 0.00 0.00 71 1063.1
20260502041950 11 180 6.4 0.0 0.00 0.00 0.00 71 1063.2
20260502041821 11 157 11.3 0.0 0.00 0.00 0.00 71 1063.3
20260502041707 11 180 9.7 0.0 0.00 0.00 0.00 71 1063.2
20260502041554 11 202 11.3 0.0 0.00 0.00 0.00 71 1063.3
20260502041449 11 180 8.0 0.0 0.00 0.00 0.00 71 1063.3
20260502041340 11 157 9.7 0.0 0.00 0.00 0.00 71 1063.3
20260502041220 11 202 8.0 0.0 0.00 0.00 0.00 71 1063.3
20260502041113 11 135 9.7 0.0 0.00 0.00 0.00 71 1063.4
20260502040959 11 180 11.3 0.0 0.00 0.00 0.00 71 1063.3
20260502040845 11 180 8.0 0.0 0.00 0.00 0.00 71 1063.2
20260502040741 11 180 9.7 0.0 0.00 0.00 0.00 71 1063.3
20260502040634 11 180 9.7 0.0 0.00 0.00 0.00 71 1063.4
20260502040525 11 157 6.4 0.0 0.00 0.00 0.00 71 1063.3
20260502040414 11 157 9.7 0.0 0.00 0.00 0.00 71 1063.3
20260502040258 11 180 11.3 0.0 0.00 0.00 0.00 71 1063.4
20260502040144 11 157 9.7 0.0 0.00 0.00 0.00 71 1063.4
20260502040022 11 157 8.0 0.0 0.00 0.00 0.00 71 1063.3
20260502035909 11 157 9.7 0.0 0.00 0.00 0.00 71 1063.4
20260502035756 11 180 9.7 0.0 0.00 0.00 0.00 71 1063.4
20260502035649 11 180 4.8 0.0 0.00 0.00 0.00 71 1063.4
20260502035535 11 157 11.3 0.0 0.00 0.00 0.00 71 1063.4
20260502035415 11 180 9.7 0.0 0.00 0.00 0.00 71 1063.4
20260502035307 11 157 9.7 0.0 0.00 0.00 0.00 71 1063.5
20260502035152 11 157 9.7 0.0 0.00 0.00 0.00 71 1063.5
20260502035038 11 157 8.0 0.0 0.00 0.00 0.00 71 1063.5
20260502034916 11 157 9.7 0.0 0.00 0.00 0.00 71 1063.5
20260502034802 11 157 0.0 0.0 0.00 0.00 0.00 71 1063.5
20260502034647 11 157 9.7 0.0 0.00 0.00 0.00 71 1063.6
20260502034524 11 180 6.4 0.0 0.00 0.00 0.00 70 1063.5
20260502034410 11 180 8.0 0.0 0.00 0.00 0.00 70 1063.5
20260502034250 11 180 9.7 0.0 0.00 0.00 0.00 70 1063.5
20260502034136 11 157 9.7 0.0 0.00 0.00 0.00 71 1063.5
20260502034028 11 157 3.2 0.0 0.00 0.00 0.00 71 1063.5
20260502033914 11 157 9.7 0.0 0.00 0.00 0.00 71 1063.6
20260502033806 11 157 8.0 0.0 0.00 0.00 0.00 71 1063.5
20260502033646 11 157 9.7 0.0 0.00 0.00 0.00 71 1063.5
20260502033531 11 157 6.4 0.0 0.00 0.00 0.00 71 1063.5
20260502033417 11 180 14.5 0.0 0.00 0.00 0.00 71 1063.6
20260502033311 11 157 11.3 0.0 0.00 0.00 0.00 71 1063.5
20260502033204 11 157 9.7 0.0 0.00 0.00 0.00 71 1063.6
20260502033035 11 157 8.0 0.0 0.00 0.00 0.00 71 1063.5
20260502032928 11 180 9.7 0.0 0.00 0.00 0.00 71 1063.6
20260502032814 11 157 9.7 0.0 0.00 0.00 0.00 71 1063.5
20260502032707 11 157 8.0 0.0 0.00 0.00 0.00 71 1063.5
20260502032553 11 157 9.7 0.0 0.00 0.00 0.00 71 1063.5
20260502032431 11 157 8.0 0.0 0.00 0.00 0.00 71 1063.6
20260502032317 11 180 9.7 0.0 0.00 0.00 0.00 71 1063.6
20260502032202 11 157 4.8 0.0 0.00 0.00 0.00 71 1063.6
20260502032043 11 157 4.8 0.0 0.00 0.00 0.00 71 1063.6
20260502031936 11 157 6.4 0.0 0.00 0.00 0.00 71 1063.5
20260502031822 11 157 6.4 0.0 0.00 0.00 0.00 71 1063.6
20260502031711 11 180 11.3 0.0 0.00 0.00 0.00 71 1063.5
20260502031602 11 180 3.2 0.0 0.00 0.00 0.00 71 1063.6
20260502031450 11 157 11.3 0.0 0.00 0.00 0.00 71 1063.6
20260502031344 11 157 4.8 0.0 0.00 0.00 0.00 71 1063.6
20260502031223 11 157 8.0 0.0 0.00 0.00 0.00 71 1063.6
20260502031118 11 157 6.4 0.0 0.00 0.00 0.00 71 1063.6
20260502031011 11 180 0.0 0.0 0.00 0.00 0.00 71 1063.7
20260502030906 11 180 4.8 0.0 0.00 0.00 0.00 71 1063.6
20260502030759 11 157 8.0 0.0 0.00 0.00 0.00 71 1063.6
20260502030653 11 180 6.4 0.0 0.00 0.00 0.00 71 1063.6
20260502030540 11 157 11.3 0.0 0.00 0.00 0.00 71 1063.6
20260502030417 11 157 4.8 0.0 0.00 0.00 0.00 71 1063.6
20260502030303 11 157 8.0 0.0 0.00 0.00 0.00 71 1063.7
20260502030142 11 157 8.0 0.0 0.00 0.00 0.00 71 1063.7
20260502030027 11 157 8.0 0.0 0.00 0.00 0.00 71 1063.8
20260502025913 11 157 8.0 0.0 0.00 0.00 0.00 71 1063.8